Wind_Speed
16 15 15 15 14 14 13 12 12 13 13 13 12 13 14 15 15 14 13 12 11 11 10 9 9 9 10 9 9 9 10 10 11 13 15 11 12 15 14 16 18 20 22 23 23 21 20 18 17 17 17 15 11 10 11 11 8 4 1 1 2 2 3 2 3 3 3 4 7 10 9 6 7 8 11 12 10 11 9 8 10 5 9 17 16 26 31 29
16 16 16 15 14 14 13 13 13 13 13 13 13 13 14 15 15 14 13 13 12 11 10 9 9 9 10 9 9 9 10 11 12 14 11 8 11 17 17 19 20 22 24 25 24 24 22 20 19 18 18 14 9 10 9 8 8 5 0 1 2 3 4 3 3 4 4 6 8 10 9 7 8 11 14 10 8 11 10 10 13 14 16 16 20 29 29 29
17 16 16 16 15 14 14 13 13 13 13 14 14 13 13 14 15 15 14 13 12 11 10 9 9 9 9 9 9 9 10 10 10 8 6 8 12 15 19 20 20 21 23 24 23 21 18 19 20 19 19 12 8 10 8 6 5 6 3 1 4 4 4 6 5 6 4 11 12 9 10 9 12 15 13 10 9 9 9 11 16 20 22 23 28 31 30 31
17 16 16 15 15 15 14 14 13 13 13 13 14 14 13 13 15 15 14 13 12 11 10 9 9 8 8 8 8 8 8 7 4 3 3 8 11 15 20 20 20 21 22 22 20 18 14 16 19 19 17 9 8 10 6 8 5 4 5 3 4 2 2 5 3 5 4 13 14 11 11 9 14 16 13 15 10 3 9 15 19 24 28 30 32 33 33 32
17 16 15 15 15 15 15 14 14 13 13 13 14 15 15 14 14 15 14 12 11 11 10 9 9 7 7 7 7 6 4 3 1 5 3 6 10 15 19 20 21 20 21 21 20 18 14 16 19 17 13 6 7 7 5 11 8 2 5 8 9 7 4 5 2 5 8 13 13 11 10 10 15 13 15 20 9 5 14 17 20 27 30 33 35 34 34 32
17 16 15 15 14 15 14 14 14 13 13 13 13 14 15 15 15 15 14 12 11 10 10 9 9 7 5 6 6 5 1 1 4 7 5 6 10 13 17 20 21 20 21 21 21 19 17 20 20 15 10 4 6 5 5 11 10 4 5 8 14 14 8 7 4 8 13 15 13 11 11 14 13 7 15 19 6 6 17 17 20 26 28 33 36 35 34 33
17 16 15 15 15 14 14 14 14 14 13 13 13 14 15 16 16 15 14 12 10 10 10 9 9 7 6 6 5 5 5 3 6 8 7 8 10 13 16 20 21 21 21 21 22 21 19 22 22 15 9 3 4 6 5 8 11 6 5 7 13 16 14 13 7 11 15 17 15 13 13 15 13 7 14 15 5 9 18 16 19 26 29 33 35 34 34 33
17 16 16 15 15 15 14 14 14 14 13 13 14 14 14 15 16 16 15 12 10 9 9 9 8 7 5 5 5 5 5 5 7 7 6 8 11 13 16 19 21 21 20 20 22 21 21 23 22 15 7 3 4 6 6 5 7 7 8 10 10 12 14 16 11 14 15 14 14 13 12 13 11 10 13 12 8 14 18 16 21 27 30 33 34 34 33 32
17 16 16 16 16 16 15 15 15 14 13 13 13 14 14 15 16 16 15 11 9 9 9 8 7 5 5 5 3 2 3 8 8 7 6 6 8 11 14 17 21 22 21 19 19 21 21 22 22 14 6 7 5 3 5 2 3 7 11 12 10 12 15 13 13 17 16 13 14 12 7 7 7 7 9 12 13 18 20 19 25 30 32 33 32 33 34 33
17 16 16 17 17 17 16 16 15 15 14 13 14 14 15 15 16 15 14 11 9 8 7 6 5 4 5 5 1 2 7 10 7 7 6 5 5 8 12 16 20 22 22 20 19 21 21 20 21 14 5 7 6 3 3 3 4 7 10 13 12 14 15 13 17 17 15 13 15 11 4 5 7 5 4 11 17 21 22 23 28 31 33 33 31 32 33 32
17 17 17 17 17 17 17 17 16 16 15 14 15 14 14 15 15 14 12 11 9 7 6 5 4 5 5 5 5 4 8 9 7 7 5 4 4 4 7 13 17 21 22 22 20 21 21 18 18 12 3 3 3 4 4 4 7 12 12 11 9 8 3 11 15 16 13 8 14 11 4 3 5 3 4 14 21 23 25 26 31 32 33 33 30 31 32 32
18 18 18 18 18 18 17 18 17 16 16 16 14 13 13 14 14 12 11 10 8 6 4 4 4 4 3 6 9 7 7 7 7 7 3 3 3 2 3 8 12 17 20 22 21 20 20 16 15 11 3 0 1 2 5 9 12 13 9 5 5 8 5 7 8 14 10 5 14 13 4 1 5 4 5 18 22 21 27 29 31 32 32 33 29 30 32 32
20 20 19 18 18 18 18 18 17 17 17 14 12 12 13 13 12 11 9 8 7 5 3 2 3 3 3 6 8 7 6 7 9 8 6 4 4 2 3 7 9 11 15 19 19 20 20 17 15 11 3 1 1 2 8 13 12 9 4 1 1 6 2 4 6 11 6 5 17 13 1 4 7 8 7 20 24 23 28 29 31 31 31 32 30 29 32 33
21 20 20 19 18 18 18 17 17 17 15 13 11 12 13 11 9 8 7 6 5 4 2 2 3 4 4 3 7 7 6 8 9 9 9 8 8 4 4 8 10 10 11 15 16 17 19 17 15 11 7 5 5 7 9 9 5 2 1 2 2 2 2 2 6 10 4 7 18 8 2 4 4 9 11 21 26 25 28 28 29 31 30 32 30 29 31 33
21 20 20 19 19 18 17 17 16 16 14 12 12 13 11 8 7 6 4 3 2 2 2 3 3 4 6 3 7 7 7 8 8 7 9 9 8 5 5 9 10 10 10 12 12 12 16 18 14 9 7 6 6 6 5 4 3 2 0 2 2 1 3 2 6 10 3 5 15 6 1 5 4 7 14 21 26 26 26 26 28 30 30 32 31 29 31 33
20 20 20 19 18 17 17 16 16 14 12 12 13 13 10 7 6 3 0 1 2 2 2 4 4 4 5 2 6 6 6 8 6 6 9 9 7 6 5 8 10 10 10 10 9 7 11 16 13 9 7 4 2 0 3 4 4 3 1 2 2 1 1 2 4 9 4 5 10 6 1 3 4 6 15 21 26 26 25 25 27 28 29 31 31 29 31 33
20 20 20 19 18 17 16 16 16 13 10 13 13 10 8 6 4 2 3 2 3 4 4 5 5 5 3 3 4 5 5 6 6 7 8 9 9 6 6 7 9 10 9 9 10 9 11 13 11 7 5 2 1 3 2 1 2 3 2 1 2 1 1 0 1 7 7 6 7 7 4 4 4 4 15 21 25 24 24 26 27 27 28 30 31 30 31 33
21 21 20 19 18 17 16 15 15 11 9 12 11 8 6 3 3 4 3 5 4 3 3 4 3 1 3 5 4 3 1 4 7 8 8 9 10 7 5 6 7 11 10 8 9 11 12 10 7 2 1 2 3 4 3 3 3 2 1 2 1 2 1 2 2 5 8 5 6 7 7 9 6 2 12 19 24 23 22 26 28 28 28 29 30 30 31 34
22 22 21 20 18 16 15 14 14 10 7 10 9 5 3 3 0 3 3 8 6 2 1 3 4 2 2 4 3 1 1 3 7 9 10 10 11 9 7 5 7 12 10 5 6 11 11 6 4 3 3 3 4 5 6 5 5 6 4 4 2 2 2 3 3 5 10 6 5 8 8 11 8 4 9 17 23 22 20 23 26 28 28 28 29 31 32 34
25 23 22 20 17 15 14 13 13 10 6 7 6 2 3 6 2 1 8 12 7 4 5 6 8 10 8 3 1 1 1 4 6 7 11 12 11 11 9 8 9 10 7 5 5 8 9 5 3 5 4 5 5 6 7 5 6 6 4 3 2 1 3 4 4 5 9 6 5 10 10 11 10 5 8 16 20 18 18 20 22 26 29 28 29 31 32 34
27 25 23 21 18 14 13 12 11 8 5 4 3 3 6 8 3 4 11 10 6 6 9 9 10 14 11 5 2 4 4 2 5 6 12 14 12 12 9 7 8 4 3 6 6 5 7 6 5 5 6 6 5 6 5 3 4 3 3 2 1 2 4 5 4 4 7 6 5 8 8 10 9 6 9 15 15 15 20 23 24 28 30 30 29 30 32 33
28 27 25 22 18 14 12 12 11 7 2 2 2 7 9 8 4 3 6 7 10 10 8 8 9 14 12 8 5 5 4 2 3 6 13 15 13 11 7 5 5 3 2 4 6 4 4 4 4 5 6 4 3 4 5 3 3 3 3 2 1 2 4 5 4 3 4 5 3 5 7 10 10 7 9 14 16 19 27 28 28 31 31 30 31 31 32 31
27 27 26 24 19 13 11 10 9 6 1 3 4 7 7 5 2 4 4 6 11 10 7 8 9 12 12 8 6 5 4 3 2 6 14 15 13 11 8 6 4 4 2 3 6 6 4 4 5 6 5 5 2 3 5 2 1 3 3 3 2 3 1 2 4 3 3 5 3 5 5 7 7 5 7 16 22 22 26 27 26 29 32 34 34 31 31 32
27 26 26 25 19 11 10 10 8 4 4 5 4 5 3 1 1 6 6 4 6 6 5 6 8 9 9 7 4 4 4 4 2 6 14 15 12 9 7 6 5 3 3 4 6 6 4 5 5 6 6 5 3 2 5 2 2 2 4 4 3 3 3 4 4 4 1 3 4 4 1 5 4 6 6 12 19 18 19 21 21 26 32 33 31 28 29 32
25 25 23 22 16 10 9 8 5 3 5 7 4 3 1 3 5 8 7 2 3 4 2 4 6 7 6 5 5 4 3 3 2 6 12 13 13 8 3 4 5 3 4 5 6 4 5 5 4 6 4 5 4 3 4 5 2 3 3 7 7 5 6 5 3 5 4 4 4 4 2 5 4 6 7 7 11 13 16 19 21 26 30 29 29 30 31 32
23 22 20 18 14 10 8 4 2 2 6 8 5 2 1 5 7 8 4 4 2 4 1 3 4 5 6 5 7 5 1 1 3 6 9 10 11 8 4 3 2 3 5 4 3 2 2 2 5 5 4 5 4 4 4 6 4 2 4 8 9 8 6 5 1 2 0 2 4 2 4 4 5 4 7 6 9 11 12 15 20 27 29 29 32 33 33 33
20 20 17 15 13 11 7 2 1 1 5 6 5 3 4 6 8 7 3 4 2 3 0 2 2 5 6 6 8 6 1 3 5 5 7 9 8 8 6 2 1 2 4 4 2 3 2 2 2 3 4 4 4 4 5 7 6 3 6 7 9 8 7 6 4 3 4 2 4 1 4 1 4 4 6 6 8 9 10 11 17 25 29 31 34 34 35 35
18 17 15 13 12 11 8 3 1 3 5 3 3 4 6 6 7 4 2 3 3 2 1 1 1 4 5 6 8 4 1 5 4 4 6 7 4 5 5 4 5 4 2 6 3 4 2 4 4 4 4 3 5 6 6 8 5 5 6 7 7 8 7 5 5 4 2 2 4 4 2 1 4 5 2 4 7 9 12 13 14 22 29 32 34 35 37 38
16 14 12 11 11 11 9 3 3 3 1 0 1 4 6 5 3 1 4 1 3 2 1 0 1 3 3 4 4 1 1 2 3 3 5 5 3 4 3 1 4 4 2 5 5 4 1 4 6 6 4 5 6 7 8 9 5 5 7 6 5 4 4 4 5 4 1 1 4 5 2 2 4 5 1 4 6 10 14 13 13 20 28 33 35 37 37 38
13 12 11 11 12 12 10 4 1 1 2 2 1 2 2 2 1 3 2 1 1 2 2 2 1 1 2 4 1 2 2 4 4 7 9 11 11 11 7 4 6 4 1 4 2 3 4 2 3 5 2 5 6 5 9 12 8 4 5 4 4 3 3 3 2 2 2 2 6 6 6 5 1 5 1 2 4 8 11 10 12 18 25 32 36 38 39 39
10 10 11 11 12 12 11 6 3 3 3 2 2 0 1 1 3 5 1 1 1 3 3 2 2 1 4 4 2 3 4 5 6 7 8 10 14 16 11 5 7 5 2 4 2 4 6 3 1 0 3 3 1 1 3 7 6 4 4 4 4 2 3 4 4 2 3 4 6 4 5 7 1 3 2 5 9 9 7 9 11 16 23 31 35 38 40 41
9 11 12 12 11 11 10 8 5 3 3 4 4 1 3 2 4 2 1 3 2 2 2 1 3 2 3 4 4 4 4 4 7 7 5 4 7 9 7 3 2 3 1 2 1 3 3 2 4 4 5 11 5 1 3 2 3 5 4 5 4 0 1 1 1 1 3 4 4 2 2 4 3 4 2 6 9 12 11 10 12 16 22 29 34 38 40 40
10 13 13 12 10 9 8 8 7 6 7 7 4 1 4 5 3 2 3 3 1 1 2 2 2 2 4 5 3 4 6 5 5 6 4 4 5 4 4 6 4 2 3 1 1 2 0 2 8 5 5 11 6 2 1 3 3 4 5 5 5 2 2 3 2 0 2 4 3 2 1 1 2 1 4 7 8 12 16 17 13 13 22 28 32 36 39 39
12 14 13 11 10 9 8 8 9 11 11 6 1 3 6 5 1 3 3 2 2 3 3 2 3 4 6 5 1 2 6 5 5 6 5 4 5 4 5 8 9 3 2 3 2 2 3 1 6 5 4 8 6 1 2 2 1 2 4 5 5 5 4 3 3 3 3 3 2 3 3 3 3 1 3 7 10 16 22 24 23 14 9 22 29 29 32 36
12 13 13 12 11 10 10 11 14 15 11 6 6 5 6 2 2 2 2 3 2 3 4 4 5 6 5 5 3 3 5 3 3 7 7 5 4 4 4 6 8 5 3 3 1 1 4 2 5 5 4 4 4 4 1 3 2 2 2 5 4 4 4 2 3 5 4 3 0 2 3 2 3 3 6 11 13 20 25 27 28 27 19 6 20 27 29 33
10 11 13 14 13 12 12 15 17 15 10 11 9 5 3 1 2 1 2 3 2 3 4 5 6 6 4 4 5 7 7 5 3 5 5 4 4 5 5 4 6 6 3 2 1 1 3 1 6 7 5 4 6 5 2 4 2 2 3 3 3 3 5 4 1 0 3 5 2 1 1 4 2 1 9 15 12 16 23 24 24 25 27 19 6 19 29 34
8 10 15 18 18 15 15 18 18 12 12 13 8 4 2 0 1 2 3 4 4 2 3 4 4 3 2 3 5 7 6 4 4 4 3 3 3 5 6 4 4 5 3 1 1 1 3 1 5 6 4 9 13 5 0 6 4 2 2 2 3 2 4 3 2 2 4 4 1 2 3 5 3 0 9 15 14 15 16 17 20 24 26 25 20 12 18 31
8 10 17 21 20 17 17 18 14 10 15 12 6 5 2 2 5 5 6 5 3 3 5 3 1 2 2 3 3 7 5 3 3 4 3 3 2 3 4 4 5 9 10 4 2 0 3 1 4 3 2 9 13 6 1 10 11 4 2 1 1 3 2 1 3 2 2 3 1 3 3 3 3 3 8 13 14 13 13 14 16 21 24 24 24 23 13 23
8 8 16 21 18 16 16 15 14 18 17 8 3 3 1 2 8 12 11 6 2 4 4 2 2 4 4 3 2 5 6 4 2 3 2 2 1 3 5 3 4 11 14 7 3 1 2 3 2 6 5 5 7 7 3 8 9 6 5 4 3 2 3 1 2 3 3 4 3 2 3 3 2 4 7 9 10 10 12 13 12 16 22 23 25 27 19 15
8 6 12 17 14 13 14 16 21 21 11 2 2 2 2 1 7 16 19 11 5 5 4 2 3 4 4 4 3 3 6 5 3 3 2 2 1 2 6 5 4 7 8 7 5 1 1 3 1 6 7 4 3 3 3 3 5 6 6 5 5 3 1 1 2 2 2 4 4 3 3 1 3 4 6 7 7 8 10 11 11 16 22 24 27 30 26 10
10 6 11 14 11 11 14 18 16 10 4 2 2 1 3 4 6 14 20 16 10 9 7 4 4 4 3 4 4 2 3 4 4 4 3 3 2 1 6 9 6 5 4 5 5 3 2 2 2 2 5 5 2 2 3 5 6 6 5 4 3 3 2 3 2 2 2 3 3 4 5 1 4 3 5 6 5 8 11 11 11 17 22 25 30 33 32 22
13 6 9 12 11 8 13 14 7 3 4 3 4 4 5 6 6 10 16 15 11 9 9 6 4 4 3 3 3 2 3 3 4 3 3 3 3 0 8 13 10 4 3 3 2 2 1 3 3 3 2 1 2 1 5 6 5 6 6 4 2 2 3 4 2 1 3 3 1 3 5 2 4 3 5 7 8 10 14 15 14 18 21 24 31 36 35 31
15 10 9 10 7 7 11 8 4 4 5 3 4 8 9 6 7 9 11 12 8 6 8 6 3 5 4 3 3 3 3 4 4 3 2 2 4 4 10 16 13 6 4 2 2 3 2 3 3 2 3 4 4 2 6 6 4 5 5 5 4 3 1 2 3 2 2 3 2 3 4 3 3 6 8 9 11 13 17 18 17 19 22 25 31 36 38 35
15 16 17 11 2 3 7 4 2 4 4 4 5 7 8 8 9 9 7 8 7 4 3 4 4 5 4 3 4 3 2 3 3 3 2 2 2 8 15 19 14 7 5 2 2 2 2 2 3 3 3 4 4 3 4 5 4 3 3 5 5 6 5 2 1 3 3 1 0 3 3 3 4 6 9 10 12 13 17 20 20 20 23 27 31 35 39 40
8 11 17 19 11 8 8 4 3 5 2 5 6 5 5 6 9 12 8 7 10 7 3 2 4 5 4 4 6 5 5 5 2 1 3 2 1 6 14 18 15 10 9 8 4 2 2 2 3 4 3 1 1 2 2 3 4 2 3 6 6 7 8 3 2 4 2 1 0 3 2 4 5 5 8 9 10 11 16 21 23 22 22 25 29 33 37 39
5 4 7 14 18 18 14 7 5 5 2 3 4 5 5 3 6 12 11 8 10 10 7 4 3 4 6 6 7 7 8 7 4 3 3 2 2 4 10 15 17 14 13 14 11 4 4 3 3 5 5 4 5 4 3 1 2 2 3 6 6 6 6 3 3 3 1 1 1 2 2 4 7 6 9 9 9 9 12 19 23 23 23 23 24 29 33 36
5 2 2 5 10 13 14 12 10 6 2 3 2 2 5 3 3 8 10 7 6 7 7 6 5 4 4 5 6 4 6 6 6 4 3 2 2 2 7 12 15 16 13 13 11 5 4 4 4 5 4 2 4 1 3 3 2 1 3 4 5 6 5 4 3 1 3 4 2 4 1 3 5 6 8 7 6 7 9 15 20 21 22 21 22 27 34 36
5 2 3 4 3 3 5 8 9 8 6 5 3 1 4 5 3 4 5 6 6 6 4 5 7 5 3 4 5 3 3 4 5 3 1 2 2 3 6 7 11 15 12 10 10 6 5 2 1 3 3 3 2 2 4 3 2 3 3 2 4 5 4 2 1 3 4 4 3 5 3 2 2 6 6 6 7 7 9 13 17 21 23 22 22 26 31 34
8 6 6 7 5 3 3 3 6 10 8 5 4 3 3 4 4 2 2 3 5 6 5 3 4 5 5 4 5 4 2 3 2 2 0 1 2 2 3 3 7 12 10 6 7 5 4 1 0 2 2 3 4 3 3 3 3 4 4 4 5 5 4 3 4 4 4 4 5 3 5 4 1 3 4 5 9 9 10 14 19 24 26 24 24 24 26 30
8 7 6 10 10 8 7 5 5 7 6 4 3 3 2 4 4 3 3 4 2 3 5 5 3 3 5 5 6 5 4 6 5 3 3 2 1 0 1 1 2 7 8 3 3 4 3 2 0 3 4 2 3 4 3 1 1 3 5 6 5 4 3 2 2 1 1 1 1 1 2 3 2 5 5 8 11 11 13 16 19 22 24 24 25 25 26 27
10 9 7 8 6 7 6 5 4 4 4 4 2 1 2 3 3 1 4 7 4 1 1 5 6 3 5 6 6 4 6 7 7 5 6 4 2 3 1 1 3 1 5 2 2 3 3 2 1 4 4 2 3 2 4 4 1 1 3 5 4 2 1 2 2 2 1 1 2 2 2 1 4 7 6 7 11 13 14 15 16 18 21 24 25 25 26 27
10 9 8 8 4 5 4 3 4 4 2 2 1 1 2 3 2 2 3 7 9 7 3 6 6 4 4 5 4 2 5 5 5 4 4 4 4 5 4 5 6 3 1 1 2 2 2 3 1 2 2 2 3 3 4 3 4 1 2 3 2 2 2 3 4 3 2 1 1 1 1 2 4 6 6 6 8 10 11 13 15 17 19 21 22 24 24 25
Wind_Direction
348 347 343 340 339 338 337 337 338 340 343 343 341 339 335 332 331 331 330 326 322 321 313 304 298 298 297 296 298 295 293 287 283 270 256 243 219 216 201 192 193 185 181 176 179 184 178 176 173 170 172 174 185 195 203 218 236 249 212 228 265 236 212 214 207 181 146 147 150 166 175 144 140 142 124 123 118 122 125 126 143 152 156 160 163 166 164 161
345 344 342 339 336 334 334 333 335 336 339 340 339 338 334 332 331 330 331 327 323 323 316 307 301 299 298 298 300 297 298 293 286 274 253 227 211 208 197 192 193 187 183 179 180 182 180 178 173 171 172 171 184 195 206 223 225 222 280 285 239 230 213 249 229 180 145 148 149 163 174 153 147 145 137 131 123 133 123 118 128 124 137 152 160 163 163 164
342 341 339 337 336 333 331 330 332 332 335 337 336 336 334 331 330 330 331 328 324 323 319 311 303 301 301 300 300 300 306 303 288 273 239 211 207 202 196 193 189 187 188 185 182 183 184 181 174 170 169 167 179 187 202 215 207 210 225 285 240 234 251 290 245 197 165 150 147 156 168 157 155 153 147 142 136 149 148 142 139 134 141 151 158 162 164 168
340 339 337 336 335 334 331 330 330 330 332 334 334 333 331 329 328 329 329 328 324 322 320 311 304 303 303 300 301 304 316 318 283 204 186 198 196 197 197 191 185 184 186 187 184 181 182 180 174 170 165 159 176 182 201 209 193 181 197 231 250 261 293 302 239 183 153 150 149 152 160 155 161 160 151 146 139 180 182 167 160 153 154 157 160 164 167 172
342 341 339 337 336 335 333 331 331 331 332 332 332 330 328 326 324 326 328 328 324 320 319 312 305 303 302 299 300 306 335 356 151 140 145 185 184 192 194 188 182 179 181 185 183 178 180 180 171 166 166 153 167 181 226 218 212 209 229 245 262 285 302 302 262 170 151 146 144 150 164 160 160 162 161 161 156 198 185 175 171 164 163 164 163 167 171 175
348 346 343 340 338 338 337 335 333 332 332 331 330 328 325 322 319 323 325 326 322 318 315 310 303 297 299 296 296 297 277 79 131 127 112 144 165 180 188 185 178 177 179 181 180 178 177 173 168 165 166 153 159 183 234 220 216 240 260 253 258 263 260 274 248 177 162 149 150 165 169 157 152 160 174 176 173 177 176 173 173 171 169 168 167 170 174 177
354 352 348 345 342 342 340 338 336 335 333 330 329 326 323 319 316 319 322 324 320 316 311 309 303 294 295 289 292 291 257 213 131 120 102 116 143 166 181 181 177 179 178 177 179 177 172 169 170 167 155 142 169 200 242 229 213 226 266 257 261 258 252 260 231 177 171 160 162 168 164 163 161 162 176 183 187 172 170 169 175 173 169 168 168 172 176 179
358 355 352 349 346 344 342 342 339 337 335 331 329 324 321 317 314 316 318 319 316 315 310 308 304 293 293 283 292 305 259 190 139 121 106 116 141 163 178 181 180 182 178 178 181 177 170 170 175 169 153 164 155 188 234 253 221 217 247 257 267 262 258 256 217 173 170 164 162 163 166 177 176 161 170 182 180 172 166 165 175 171 167 169 170 174 177 180
1 358 355 351 348 346 345 344 340 338 336 332 328 323 321 316 313 314 314 314 313 314 310 309 306 292 285 277 292 313 190 160 141 125 119 122 142 164 179 185 186 188 183 179 181 179 174 173 178 171 159 186 167 192 220 235 229 210 234 256 267 269 268 242 194 169 166 162 159 160 165 179 181 159 168 185 178 169 163 163 172 170 168 170 172 176 179 182
1 358 355 352 349 346 345 343 340 338 336 333 329 323 320 313 311 313 310 310 310 313 311 309 301 281 274 262 250 164 165 160 151 137 132 132 146 170 186 194 194 195 193 186 182 182 182 180 178 168 144 182 188 261 230 192 250 258 263 271 273 282 271 211 175 163 160 159 163 161 140 152 173 171 175 190 179 169 164 164 171 171 170 173 175 178 181 184
358 355 353 350 346 343 342 341 338 336 336 335 330 323 317 310 309 311 308 308 309 314 309 305 296 273 267 248 222 182 163 166 165 151 143 144 146 166 189 197 199 201 200 195 190 186 187 183 175 172 157 181 205 290 279 265 286 296 301 300 304 328 287 177 160 158 153 156 170 151 95 116 169 200 203 182 176 173 169 166 171 172 172 175 177 180 183 186
354 351 350 347 343 341 339 338 335 334 335 336 331 322 312 307 309 311 311 310 312 315 301 299 298 267 261 249 224 184 160 175 175 169 168 157 135 85 184 199 202 204 205 201 197 191 187 179 173 181 191 126 245 298 310 316 313 303 303 310 325 15 74 144 140 162 158 152 168 140 85 276 211 229 189 174 175 172 169 167 170 172 173 176 177 182 186 189
351 349 348 347 343 340 338 335 332 331 336 340 334 319 309 308 314 317 314 314 313 307 288 284 297 278 280 258 209 169 165 180 181 188 190 182 174 124 168 199 203 207 210 208 205 197 188 180 182 196 226 332 300 311 316 316 315 303 301 98 8 10 42 161 138 165 157 144 166 151 148 254 222 226 186 172 173 166 165 167 172 174 175 177 178 183 188 191
349 347 347 347 344 341 337 334 329 330 338 345 335 318 313 316 324 324 313 310 305 288 258 259 293 294 280 224 165 173 195 189 191 196 189 188 189 167 148 174 192 201 204 210 212 205 195 185 190 211 239 259 296 321 322 318 322 314 322 46 63 21 279 214 135 158 139 157 171 158 300 262 237 221 191 174 172 166 165 169 173 175 177 179 180 184 189 194
347 346 346 346 344 341 337 334 328 331 342 348 337 324 323 328 333 334 317 315 314 278 254 266 288 307 292 225 165 191 212 209 212 201 190 189 183 167 141 149 171 184 185 197 203 203 199 194 196 216 239 263 298 322 340 338 344 11 6 318 339 136 271 320 138 167 141 157 179 165 314 267 275 201 182 176 174 170 170 172 175 178 179 181 183 186 190 195
345 345 345 345 344 341 337 333 329 333 344 347 340 333 334 332 327 334 68 40 337 288 269 270 283 312 302 238 179 198 210 215 220 206 196 188 176 159 144 144 154 170 174 177 176 169 185 195 202 219 239 271 295 287 20 1 343 359 108 234 279 126 278 332 146 184 161 120 185 209 249 269 304 180 172 176 177 173 174 178 180 181 183 183 186 189 190 194
345 345 345 346 344 340 336 332 329 334 344 347 345 342 343 341 352 91 117 55 338 292 270 261 281 302 273 201 177 183 199 216 218 214 197 182 185 172 156 162 155 159 156 153 166 161 164 181 191 213 241 244 126 114 64 345 299 327 20 106 244 159 158 246 167 193 174 132 186 225 246 255 307 164 168 177 180 177 178 184 185 186 187 187 189 191 192 194
345 345 345 346 344 339 335 329 327 332 344 349 347 348 356 12 76 117 84 22 1 319 290 254 250 314 231 204 188 168 192 231 212 211 204 187 189 189 180 184 165 155 147 141 164 165 165 175 166 167 258 166 148 120 146 215 195 182 126 94 334 355 86 170 218 195 174 162 188 206 241 253 280 166 172 180 182 183 185 186 188 189 190 190 191 193 194 196
343 342 342 344 344 338 332 326 324 327 341 353 349 352 20 10 349 169 1 343 321 285 291 248 211 230 243 213 199 169 312 237 204 204 208 194 184 193 204 199 169 156 150 132 165 172 166 157 144 182 212 180 179 159 176 199 157 144 150 131 119 3 307 222 246 213 177 171 198 198 223 241 245 203 183 185 185 189 189 187 189 191 193 193 194 196 197 199
340 339 338 340 342 337 330 322 319 321 337 357 351 8 39 8 350 256 329 323 298 258 266 268 257 271 278 253 221 13 351 202 202 208 200 191 183 185 186 170 148 147 154 136 162 183 166 159 196 192 184 183 199 190 184 179 142 127 120 120 133 175 284 263 264 237 183 174 221 210 218 235 233 214 193 188 186 191 189 188 191 192 195 196 196 199 200 202
337 335 334 336 339 336 328 320 314 315 339 9 8 74 61 31 28 318 325 319 302 287 278 276 267 267 266 254 276 350 354 206 207 209 193 191 186 180 179 162 128 125 188 148 136 158 163 189 211 176 176 186 189 186 178 162 140 124 129 141 303 199 252 258 251 248 184 182 236 221 227 246 235 214 194 186 184 195 194 191 193 193 196 198 198 200 202 204
335 332 329 331 336 334 324 320 313 309 338 64 86 97 82 56 39 322 320 305 300 302 283 265 254 255 251 249 270 303 314 248 205 194 184 185 188 186 177 147 128 144 197 133 120 137 182 215 200 176 181 164 133 149 154 154 150 132 128 138 233 238 272 279 279 306 171 187 252 211 215 247 242 213 192 188 189 202 202 197 196 193 194 199 200 201 201 202
333 328 325 327 335 332 322 319 311 302 203 144 117 103 90 68 42 333 317 287 295 301 278 250 243 249 251 254 268 273 243 201 216 193 181 180 185 187 170 139 136 145 138 132 138 155 197 234 209 191 161 142 158 133 123 99 147 151 137 136 217 246 303 280 295 351 141 194 220 168 200 256 247 213 200 197 196 203 207 205 202 198 198 201 202 201 200 199
331 326 323 327 335 332 323 317 305 286 182 164 137 115 89 32 306 322 322 293 291 305 281 236 226 240 251 258 258 252 219 200 223 179 176 179 174 173 177 155 132 135 167 162 141 154 214 243 196 166 147 155 190 143 124 138 269 228 175 161 190 207 202 226 286 354 58 250 230 143 39 303 241 207 212 199 197 202 204 204 206 207 206 206 205 204 204 203
330 327 326 330 337 335 326 316 291 253 184 171 164 147 56 309 294 310 327 347 294 304 306 199 209 220 230 239 226 217 212 214 210 167 170 178 171 161 168 151 138 172 193 147 131 157 248 249 153 131 149 156 170 216 174 165 221 293 211 184 179 178 211 237 344 13 21 331 264 131 66 305 272 221 217 188 190 196 192 194 203 209 211 210 208 208 209 208
332 331 334 337 339 339 335 315 277 252 194 186 188 177 286 298 308 310 328 46 338 298 338 166 195 202 199 203 197 183 154 220 178 164 166 172 175 165 147 135 122 176 171 139 138 183 250 231 149 141 171 158 169 229 207 162 155 291 241 189 174 171 206 233 64 51 74 288 276 135 140 269 305 257 227 191 191 196 188 193 201 205 209 209 209 210 211 211
337 336 342 345 342 345 348 319 283 189 171 188 207 215 263 293 314 309 329 51 343 309 56 168 163 178 184 173 174 163 103 170 135 119 151 162 179 175 161 174 107 154 164 123 125 222 182 119 123 135 163 166 184 230 210 162 141 243 236 166 158 177 203 215 166 178 226 271 313 347 131 222 305 270 235 188 189 203 201 202 201 202 206 207 209 211 211 212
341 342 352 353 348 352 357 349 157 146 151 173 224 239 261 285 304 306 82 76 286 310 55 233 157 160 170 161 171 167 115 161 123 80 134 144 173 175 162 195 176 162 136 121 160 256 180 155 182 165 161 182 206 220 192 162 163 230 205 146 149 178 185 178 166 199 241 30 318 300 120 141 281 284 280 164 186 214 215 213 205 201 203 205 208 210 212 212
348 354 4 4 360 3 9 32 124 141 159 318 256 258 265 268 286 33 88 76 287 324 38 255 136 154 155 143 170 241 21 109 92 103 114 94 87 121 119 192 161 143 88 110 171 241 238 189 187 153 157 202 220 222 178 162 197 207 164 140 135 147 143 131 154 181 88 65 258 257 180 146 279 291 47 143 197 221 218 217 211 204 203 204 207 209 211 212
359 8 16 13 8 7 11 24 141 189 320 336 321 277 265 238 122 74 68 40 11 325 305 285 256 172 105 94 60 337 27 52 64 90 71 54 60 65 70 71 68 97 65 43 123 239 294 259 157 119 149 224 227 227 190 186 198 161 120 111 103 75 63 74 91 113 81 279 256 240 191 143 295 288 222 169 247 240 224 218 214 208 205 205 206 208 209 210
7 10 11 9 7 3 4 7 343 310 320 350 2 353 148 130 71 87 94 316 6 338 337 322 297 33 96 107 75 2 34 30 23 59 53 38 48 42 37 40 35 49 25 3 12 305 333 24 101 176 29 17 350 285 226 203 190 140 102 99 112 12 24 43 0 62 127 257 269 246 172 131 141 280 295 303 315 315 271 234 217 209 206 205 206 207 209 209
4 360 359 359 359 355 355 3 4 352 343 355 3 41 144 71 36 84 279 322 346 341 340 304 311 9 88 90 61 16 40 35 12 40 59 33 47 46 41 31 9 81 89 305 293 326 335 35 326 298 20 26 29 327 342 16 102 133 131 109 128 280 29 132 287 148 181 245 264 251 130 126 204 227 289 310 332 341 321 289 255 228 212 207 206 207 208 209
2 4 4 3 4 2 1 5 9 5 348 336 338 53 98 79 39 322 311 329 355 332 321 297 342 44 81 69 52 36 50 38 1 26 52 53 59 55 43 28 20 127 159 210 79 22 274 306 350 353 356 5 25 104 3 22 68 137 154 138 150 157 121 181 229 116 209 243 255 278 246 200 231 276 332 327 335 346 348 345 320 257 226 216 211 208 208 208
10 11 12 18 23 23 18 10 5 357 347 341 16 75 68 76 17 333 337 284 273 334 343 345 7 42 59 48 1 82 66 39 16 37 41 47 48 13 359 13 14 36 110 76 75 77 131 200 355 13 334 348 15 75 197 175 138 189 180 142 147 165 150 178 206 160 179 231 297 309 238 170 149 165 342 338 343 359 6 8 9 360 268 226 218 213 210 209
14 14 17 20 18 18 14 7 4 359 3 51 86 69 66 71 289 326 322 282 293 325 330 4 43 50 37 16 353 28 70 72 43 52 48 52 56 5 341 349 358 11 59 62 51 76 112 187 309 312 287 336 3 315 306 127 166 235 152 117 135 175 155 129 178 174 157 142 65 277 226 193 180 193 5 0 357 8 11 10 13 13 4 284 217 213 212 213
15 21 25 21 14 9 2 1 3 4 31 78 78 49 74 104 281 260 286 300 306 310 332 8 36 46 15 359 2 3 27 58 61 54 44 54 62 16 348 313 337 13 55 86 73 36 78 273 311 324 309 340 353 310 351 79 165 213 96 140 192 157 124 107 141 227 87 124 175 280 316 333 312 238 356 357 359 11 11 9 8 5 7 6 286 222 215 214
26 25 23 23 20 10 1 4 5 15 55 77 74 54 108 259 329 252 285 305 291 316 56 51 19 35 32 26 11 343 356 35 42 49 38 30 35 4 345 314 329 9 19 79 98 84 102 201 310 350 326 321 342 336 202 33 33 134 122 235 233 114 104 110 116 11 50 127 195 14 36 2 17 265 337 348 357 5 6 5 5 4 6 3 349 311 237 220
35 25 21 21 18 12 13 13 14 60 77 72 67 71 99 343 355 333 316 317 303 15 62 81 43 51 73 75 27 349 358 24 16 41 58 29 21 0 351 322 332 355 350 4 89 35 68 95 291 331 271 302 343 23 28 353 11 68 121 283 89 113 139 103 127 146 118 140 144 35 48 27 26 325 333 345 346 352 357 358 5 6 3 356 348 342 300 232
27 22 18 17 20 26 32 36 56 80 78 63 58 58 49 327 352 359 2 357 18 54 53 50 59 63 51 82 96 17 32 55 32 50 63 37 38 22 19 345 313 346 354 19 83 280 27 89 276 305 313 311 356 38 24 330 347 24 34 13 28 107 155 154 137 152 150 157 158 77 32 14 324 316 337 337 329 345 355 352 0 3 1 358 352 350 340 256
34 38 15 15 34 50 55 65 67 68 67 64 93 49 358 331 345 8 27 38 44 50 61 25 36 76 63 57 82 50 44 48 42 65 58 27 57 16 20 15 310 329 359 34 62 36 16 72 39 310 331 15 36 16 26 11 359 17 31 25 2 347 14 58 57 68 113 145 158 121 76 340 297 331 337 324 330 357 358 348 352 358 2 6 4 5 6 327
50 49 8 20 60 74 69 69 58 52 60 40 51 8 0 26 354 3 25 44 55 52 67 78 54 75 89 59 50 38 54 48 30 64 76 29 52 39 360 359 327 305 1 31 26 26 40 74 82 341 354 52 85 311 32 62 57 58 58 34 355 342 45 87 71 359 40 103 140 136 120 264 299 348 344 339 358 4 358 351 352 359 5 12 16 19 24 25
62 50 6 43 83 76 65 63 30 24 78 46 41 38 27 28 7 358 12 29 47 47 49 61 57 54 64 68 56 42 77 66 16 46 92 40 61 65 339 356 358 350 50 60 335 336 71 96 76 43 4 137 201 337 38 46 59 69 58 30 359 12 68 109 136 317 7 33 29 110 109 212 275 350 357 3 18 11 5 4 2 4 8 15 23 28 32 38
59 48 37 74 90 48 62 65 0 27 52 37 59 48 42 41 16 10 15 21 27 33 37 35 34 49 47 50 68 66 76 67 31 51 104 50 38 7 359 15 23 23 44 66 313 336 45 69 54 23 323 303 273 317 25 21 34 51 27 15 13 347 343 153 166 153 63 21 356 63 91 198 266 351 1 11 20 18 15 11 7 9 12 17 27 32 36 40
62 51 46 56 53 15 73 90 37 57 32 23 50 35 39 50 29 21 24 21 21 31 46 25 23 47 44 38 65 69 69 82 64 46 71 107 32 13 21 29 31 32 39 25 300 332 29 51 70 67 14 352 335 331 352 358 21 45 350 352 7 356 2 42 86 61 66 14 220 115 127 210 263 343 359 12 20 20 17 13 10 12 14 19 27 34 38 41
65 53 42 45 61 84 90 107 109 99 68 42 48 16 18 37 31 32 37 38 38 48 76 34 25 51 47 47 61 43 41 78 101 39 44 61 355 9 24 28 27 33 35 27 23 63 75 73 99 107 123 172 208 257 272 314 349 17 348 346 359 7 12 29 72 52 62 245 65 125 163 273 300 359 10 9 18 19 14 15 16 15 13 17 26 34 39 41
58 53 25 36 56 68 70 72 79 84 95 78 55 16 12 9 16 30 39 41 35 44 63 42 19 51 41 50 67 38 26 48 66 76 57 20 324 351 20 28 28 25 25 29 34 63 93 64 72 107 129 164 177 210 247 310 6 3 352 349 352 358 5 42 84 71 119 87 342 194 154 330 325 6 19 7 16 22 13 14 16 13 11 14 21 32 39 42
62 47 338 18 42 48 49 46 45 54 84 95 85 359 5 1 348 23 37 41 27 39 56 35 24 53 47 63 86 49 19 33 41 53 48 2 299 324 13 28 27 20 22 28 29 56 103 49 36 77 87 163 168 224 320 7 41 343 347 347 339 341 0 48 76 148 132 91 291 255 70 17 325 1 16 360 9 29 21 16 14 12 12 12 16 29 40 43
78 80 56 68 51 12 37 37 39 57 60 57 82 55 10 27 36 30 26 26 27 37 58 35 21 41 73 95 112 93 35 35 27 17 14 5 344 341 1 11 16 20 27 28 28 62 109 67 21 84 39 347 353 353 359 28 4 316 313 295 301 325 352 37 264 220 143 129 232 266 312 311 317 4 6 359 16 37 35 22 17 18 19 17 16 24 35 39
85 91 67 76 82 55 56 41 48 63 52 34 58 47 21 38 35 6 341 13 19 19 52 81 16 21 59 84 105 112 114 110 61 339 221 58 11 10 19 350 358 16 25 28 25 48 100 91 100 120 69 7 348 343 10 36 1 316 290 264 260 278 282 259 255 231 174 184 219 256 296 277 272 4 2 34 42 51 50 33 26 24 20 18 18 20 26 32
88 92 80 87 81 51 43 41 49 62 41 27 54 28 26 49 21 352 15 45 52 347 35 100 115 35 53 66 85 108 157 157 146 184 178 126 24 164 83 229 294 7 16 24 6 18 80 123 178 95 80 340 318 345 351 331 273 276 278 273 266 274 282 284 284 264 150 284 276 324 308 272 314 355 27 63 58 54 50 36 29 26 21 19 20 19 20 24
96 101 98 100 74 21 28 37 37 64 36 22 48 0 0 18 354 349 29 34 58 26 28 141 144 69 41 53 76 124 173 158 143 162 165 141 145 178 166 198 191 12 9 19 351 1 71 97 5 74 77 278 269 310 303 292 289 305 312 311 293 277 294 297 285 267 220 301 328 4 19 293 322 348 22 60 54 49 45 36 29 26 24 22 20 17 18 20
93 97 97 102 78 6 25 34 24 64 64 353 38 52 21 11 12 99 80 24 30 48 99 158 142 84 51 53 57 157 179 148 120 128 159 160 148 141 115 101 114 114 118 110 36 2 100 108 77 80 91 264 263 258 274 338 31 21 340 2 326 285 325 313 291 282 260 179 149 218 249 284 319 348 14 37 44 47 43 34 28 23 23 23 21 18 19 19
Height
1513 1512 1510 1509 1508 1507 1506 1505 1504 1503 1502 1501 1500 1499 1498 1497 1495 1495 1494 1494 1493 1492 1492 1491 1490 1490 1489 1489 1489 1489 1488 1488 1487 1486 1485 1485 1487 1488 1490 1492 1493 1495 1497 1498 1501 1503 1504 1506 1507 1509 1511 1513 1515 1515 1516 1516 1516 1518 1519 1523 1526 1525 1521 1512 1510 1510 1509 1510 1511 1511 1511 1511 1513 1514 1515 1516 1519 1520 1521 1522 1523 1524 1524 1525 1526 1529 1533 1535
1512 1511 1510 1509 1507 1506 1505 1504 1503 1502 1501 1500 1499 1498 1497 1496 1495 1494 1493 1493 1492 1492 1491 1490 1490 1489 1488 1488 1488 1487 1487 1486 1485 1484 1483 1484 1485 1486 1488 1490 1492 1494 1496 1497 1499 1501 1503 1505 1506 1508 1510 1513 1514 1515 1516 1516 1516 1518 1519 1523 1524 1519 1512 1507 1506 1505 1505 1508 1509 1511 1511 1512 1513 1514 1515 1518 1521 1521 1522 1523 1524 1525 1526 1527 1528 1531 1534 1535
1511 1510 1509 1508 1506 1505 1504 1503 1502 1501 1500 1499 1498 1497 1496 1495 1494 1493 1492 1492 1491 1491 1490 1489 1489 1488 1488 1487 1487 1486 1486 1485 1483 1482 1482 1483 1484 1485 1487 1489 1491 1493 1495 1497 1499 1501 1503 1504 1506 1508 1510 1512 1514 1515 1516 1516 1516 1516 1519 1524 1519 1511 1508 1505 1505 1504 1504 1506 1508 1511 1512 1512 1513 1514 1516 1518 1521 1522 1521 1521 1522 1524 1526 1527 1529 1531 1534 1535
1510 1509 1507 1506 1505 1504 1503 1502 1501 1501 1500 1499 1497 1496 1495 1494 1493 1492 1491 1491 1490 1490 1489 1489 1488 1487 1487 1486 1486 1486 1485 1484 1482 1481 1481 1482 1483 1484 1486 1488 1490 1493 1495 1498 1500 1502 1504 1505 1507 1508 1510 1513 1514 1515 1515 1515 1516 1515 1517 1519 1512 1507 1508 1506 1504 1505 1505 1506 1507 1510 1511 1512 1513 1514 1515 1516 1520 1523 1520 1519 1519 1521 1523 1526 1528 1531 1533 1535
1509 1507 1506 1505 1504 1503 1502 1501 1500 1500 1499 1498 1497 1495 1494 1493 1492 1491 1490 1490 1489 1489 1488 1488 1487 1487 1486 1486 1486 1485 1485 1485 1482 1481 1481 1481 1482 1483 1485 1488 1490 1492 1495 1498 1500 1502 1504 1505 1507 1508 1510 1512 1514 1515 1515 1513 1515 1515 1513 1512 1508 1507 1509 1506 1505 1506 1506 1507 1508 1510 1511 1511 1513 1514 1514 1514 1517 1519 1518 1519 1520 1521 1522 1524 1528 1530 1533 1535
1508 1506 1505 1504 1503 1502 1501 1500 1499 1499 1498 1497 1496 1495 1493 1492 1491 1490 1489 1489 1488 1488 1488 1487 1487 1486 1486 1485 1485 1485 1485 1484 1482 1481 1482 1481 1482 1483 1485 1488 1490 1492 1494 1497 1499 1501 1503 1504 1506 1508 1509 1511 1513 1514 1513 1512 1514 1515 1512 1508 1507 1507 1507 1505 1505 1506 1505 1506 1508 1510 1510 1511 1513 1514 1514 1514 1515 1516 1517 1520 1522 1523 1524 1525 1528 1530 1532 1534
1507 1506 1505 1504 1502 1501 1500 1499 1498 1498 1497 1496 1495 1494 1492 1491 1490 1489 1488 1488 1487 1487 1486 1486 1486 1485 1485 1485 1484 1484 1484 1483 1482 1482 1482 1482 1482 1483 1485 1488 1490 1492 1494 1496 1498 1500 1501 1503 1505 1507 1509 1511 1513 1513 1512 1512 1512 1515 1512 1507 1506 1506 1505 1504 1505 1506 1506 1506 1507 1509 1511 1511 1512 1513 1514 1516 1516 1517 1519 1521 1522 1524 1526 1527 1529 1531 1533 1535
1507 1505 1504 1503 1502 1501 1500 1498 1498 1497 1496 1495 1494 1493 1491 1490 1489 1488 1487 1487 1486 1486 1486 1485 1485 1485 1485 1484 1484 1484 1483 1482 1483 1483 1483 1483 1483 1484 1486 1488 1490 1492 1493 1495 1497 1499 1501 1503 1504 1506 1509 1511 1511 1512 1512 1512 1512 1513 1511 1506 1505 1504 1503 1503 1504 1505 1505 1506 1508 1510 1511 1511 1512 1512 1513 1515 1516 1517 1519 1521 1523 1525 1527 1528 1529 1531 1533 1536
1506 1505 1504 1503 1501 1500 1499 1498 1497 1496 1495 1494 1493 1491 1490 1489 1488 1487 1486 1486 1485 1485 1485 1484 1484 1484 1484 1484 1484 1483 1482 1482 1483 1483 1483 1483 1484 1485 1486 1488 1489 1491 1493 1495 1497 1499 1500 1502 1504 1505 1508 1509 1510 1511 1511 1513 1513 1509 1508 1505 1504 1503 1502 1502 1503 1505 1506 1507 1508 1510 1512 1513 1513 1514 1515 1515 1516 1518 1519 1521 1523 1525 1527 1529 1530 1531 1533 1535
1506 1505 1504 1502 1501 1499 1498 1497 1496 1495 1494 1493 1491 1490 1489 1488 1487 1486 1485 1485 1485 1484 1484 1484 1484 1484 1484 1483 1484 1482 1481 1482 1483 1484 1484 1484 1485 1485 1486 1487 1489 1491 1493 1495 1497 1499 1500 1501 1504 1506 1507 1508 1509 1510 1510 1512 1510 1506 1506 1505 1503 1502 1500 1500 1502 1504 1506 1507 1508 1510 1513 1514 1514 1516 1517 1516 1516 1518 1520 1522 1523 1525 1527 1529 1531 1532 1533 1535
1506 1505 1503 1502 1500 1499 1497 1496 1495 1494 1493 1492 1490 1489 1488 1487 1486 1485 1485 1484 1484 1484 1483 1483 1483 1483 1483 1483 1483 1482 1480 1482 1483 1484 1484 1485 1485 1485 1486 1487 1489 1490 1492 1494 1496 1498 1500 1502 1505 1506 1508 1508 1509 1509 1509 1509 1508 1505 1505 1504 1502 1500 1500 1500 1502 1505 1506 1508 1509 1509 1513 1515 1515 1516 1515 1514 1516 1518 1519 1521 1523 1525 1527 1529 1531 1533 1534 1536
1506 1504 1503 1501 1500 1498 1497 1495 1494 1493 1492 1491 1489 1488 1486 1485 1485 1484 1484 1484 1484 1483 1483 1483 1482 1482 1482 1482 1482 1481 1481 1482 1483 1483 1484 1485 1486 1486 1486 1488 1489 1490 1492 1494 1496 1498 1501 1503 1505 1506 1507 1508 1509 1509 1508 1507 1506 1505 1504 1506 1505 1502 1503 1504 1503 1505 1506 1509 1509 1510 1518 1519 1516 1515 1513 1513 1516 1518 1519 1521 1523 1525 1527 1530 1532 1533 1534 1536
1505 1504 1502 1501 1499 1497 1496 1495 1493 1492 1491 1490 1488 1486 1485 1484 1484 1484 1483 1483 1483 1483 1482 1482 1482 1482 1482 1481 1480 1481 1481 1481 1482 1483 1484 1484 1486 1486 1486 1488 1489 1491 1492 1495 1497 1499 1501 1503 1505 1506 1507 1507 1508 1509 1507 1505 1505 1505 1504 1506 1508 1508 1510 1506 1504 1507 1507 1510 1509 1512 1523 1521 1513 1512 1512 1513 1515 1517 1519 1521 1523 1525 1527 1530 1531 1533 1534 1536
1504 1503 1501 1500 1498 1497 1495 1494 1492 1491 1490 1489 1487 1486 1484 1484 1483 1483 1483 1483 1482 1483 1482 1482 1482 1482 1482 1480 1480 1481 1481 1481 1482 1482 1483 1484 1485 1486 1486 1487 1489 1491 1493 1495 1497 1499 1501 1503 1505 1505 1506 1507 1507 1507 1507 1506 1505 1506 1506 1507 1511 1515 1513 1507 1505 1508 1510 1512 1508 1513 1525 1519 1510 1512 1512 1513 1515 1516 1519 1520 1523 1525 1527 1529 1531 1532 1534 1536
1504 1502 1500 1499 1497 1496 1494 1493 1492 1490 1490 1488 1487 1485 1484 1483 1483 1482 1482 1482 1482 1482 1482 1482 1482 1482 1481 1480 1479 1480 1480 1481 1482 1482 1483 1484 1485 1486 1486 1487 1489 1490 1492 1495 1497 1499 1501 1503 1504 1505 1506 1506 1507 1508 1510 1509 1507 1508 1511 1514 1515 1516 1515 1510 1507 1508 1511 1512 1509 1515 1524 1517 1509 1510 1511 1514 1515 1516 1519 1521 1523 1524 1526 1528 1530 1532 1533 1535
1503 1501 1500 1498 1496 1495 1493 1492 1491 1490 1489 1487 1486 1484 1483 1483 1482 1482 1482 1482 1482 1482 1482 1482 1482 1482 1481 1479 1479 1480 1480 1481 1481 1482 1483 1484 1485 1486 1487 1488 1488 1490 1492 1494 1497 1499 1501 1503 1504 1505 1506 1507 1508 1510 1513 1514 1512 1511 1513 1516 1516 1517 1518 1515 1510 1508 1509 1511 1512 1515 1520 1516 1510 1508 1510 1513 1515 1516 1519 1520 1522 1524 1525 1527 1529 1531 1532 1535
1502 1500 1499 1497 1495 1494 1492 1491 1490 1489 1488 1487 1485 1484 1483 1482 1482 1481 1481 1482 1482 1482 1482 1482 1482 1482 1480 1478 1479 1479 1480 1481 1481 1482 1482 1483 1485 1485 1487 1488 1489 1491 1492 1494 1497 1498 1500 1502 1504 1506 1506 1507 1508 1511 1518 1523 1520 1516 1514 1514 1516 1516 1518 1518 1514 1509 1508 1512 1515 1515 1517 1515 1511 1509 1510 1512 1514 1516 1518 1520 1521 1523 1525 1527 1529 1530 1531 1533
1501 1499 1498 1496 1495 1493 1491 1490 1489 1488 1488 1486 1485 1484 1483 1483 1482 1482 1481 1481 1482 1482 1482 1482 1482 1483 1481 1477 1478 1479 1479 1480 1480 1481 1482 1483 1484 1485 1487 1487 1489 1491 1492 1494 1496 1498 1500 1501 1503 1506 1507 1508 1509 1512 1520 1523 1519 1517 1516 1515 1516 1516 1516 1517 1515 1510 1509 1512 1515 1517 1519 1515 1511 1511 1511 1511 1514 1515 1516 1518 1520 1522 1525 1526 1528 1529 1530 1532
1499 1498 1496 1495 1494 1492 1490 1489 1488 1488 1487 1486 1485 1484 1483 1483 1482 1481 1481 1481 1481 1481 1482 1481 1481 1481 1480 1478 1478 1479 1479 1479 1480 1480 1481 1482 1483 1485 1486 1487 1488 1490 1492 1494 1496 1497 1499 1501 1504 1507 1508 1509 1509 1510 1513 1514 1512 1513 1515 1516 1518 1518 1516 1514 1511 1507 1507 1513 1516 1517 1518 1514 1511 1512 1511 1511 1513 1514 1516 1518 1520 1522 1523 1525 1527 1528 1529 1530
1498 1496 1495 1494 1492 1491 1489 1488 1487 1487 1487 1486 1485 1484 1483 1483 1482 1482 1481 1480 1479 1480 1480 1480 1480 1479 1478 1477 1478 1478 1478 1478 1479 1480 1481 1482 1483 1484 1486 1487 1488 1490 1492 1493 1496 1496 1497 1502 1506 1506 1507 1507 1507 1507 1507 1507 1509 1511 1513 1516 1518 1519 1517 1512 1509 1505 1504 1513 1516 1513 1513 1512 1511 1511 1509 1511 1513 1514 1516 1518 1519 1520 1521 1523 1525 1526 1527 1529
1496 1494 1493 1492 1491 1489 1488 1487 1486 1486 1486 1485 1485 1484 1484 1484 1484 1484 1481 1478 1477 1478 1478 1478 1479 1477 1476 1477 1477 1478 1478 1478 1479 1479 1480 1482 1483 1484 1486 1487 1488 1492 1492 1492 1495 1495 1498 1504 1505 1503 1504 1504 1504 1505 1506 1507 1509 1510 1513 1516 1518 1519 1516 1509 1508 1505 1504 1512 1514 1510 1513 1513 1510 1510 1508 1509 1512 1513 1513 1514 1515 1517 1519 1521 1522 1524 1526 1528
1494 1492 1490 1489 1489 1487 1486 1485 1485 1485 1485 1485 1485 1484 1484 1485 1485 1485 1483 1480 1476 1476 1477 1477 1477 1476 1475 1476 1477 1478 1478 1478 1478 1479 1480 1481 1482 1483 1485 1486 1489 1491 1492 1492 1495 1498 1502 1503 1502 1501 1501 1502 1504 1505 1506 1507 1509 1511 1513 1516 1519 1517 1514 1509 1507 1505 1505 1512 1514 1511 1514 1512 1506 1506 1507 1507 1508 1509 1509 1510 1511 1514 1517 1519 1520 1522 1524 1528
1493 1490 1488 1487 1487 1486 1485 1484 1483 1484 1484 1485 1484 1484 1484 1485 1484 1484 1484 1482 1477 1474 1475 1475 1475 1475 1475 1476 1477 1477 1477 1478 1478 1478 1479 1480 1481 1483 1484 1486 1489 1491 1492 1493 1495 1501 1506 1502 1498 1499 1500 1502 1504 1505 1506 1507 1509 1511 1513 1517 1518 1515 1514 1513 1509 1507 1507 1509 1511 1511 1513 1510 1505 1505 1505 1504 1505 1506 1508 1510 1512 1514 1515 1516 1518 1520 1523 1525
1491 1488 1486 1485 1485 1484 1483 1482 1482 1483 1483 1484 1484 1484 1484 1484 1484 1484 1483 1482 1479 1474 1473 1474 1474 1475 1475 1476 1476 1477 1477 1477 1477 1478 1479 1480 1481 1483 1484 1485 1488 1491 1493 1493 1494 1500 1502 1497 1495 1497 1500 1502 1504 1505 1506 1509 1510 1510 1511 1515 1515 1513 1513 1513 1510 1508 1507 1507 1506 1510 1517 1513 1506 1507 1505 1503 1504 1505 1508 1511 1514 1514 1514 1516 1519 1521 1523 1524
1489 1487 1485 1483 1483 1482 1481 1481 1481 1482 1483 1483 1483 1484 1484 1484 1484 1483 1483 1483 1482 1475 1472 1473 1473 1474 1475 1475 1476 1476 1476 1476 1477 1477 1478 1479 1480 1482 1483 1484 1487 1491 1493 1493 1495 1498 1497 1494 1494 1497 1500 1501 1504 1505 1505 1508 1512 1512 1509 1509 1510 1510 1511 1511 1510 1511 1514 1513 1505 1509 1523 1520 1509 1508 1505 1502 1504 1505 1506 1508 1511 1512 1513 1516 1518 1520 1521 1523
1487 1485 1483 1482 1481 1481 1481 1480 1480 1481 1482 1482 1483 1483 1483 1483 1483 1483 1483 1487 1485 1476 1473 1474 1473 1473 1474 1475 1475 1476 1478 1478 1476 1477 1478 1479 1480 1481 1484 1485 1486 1490 1492 1492 1495 1496 1494 1492 1493 1496 1498 1500 1503 1505 1504 1505 1512 1515 1507 1503 1505 1507 1509 1510 1512 1515 1519 1517 1506 1505 1520 1522 1514 1510 1505 1502 1504 1505 1505 1506 1506 1509 1511 1513 1515 1516 1518 1521
1486 1484 1483 1481 1480 1480 1480 1479 1480 1481 1481 1482 1482 1482 1483 1482 1483 1482 1483 1492 1490 1477 1474 1475 1473 1473 1474 1474 1475 1476 1480 1479 1476 1478 1478 1479 1481 1480 1484 1486 1486 1488 1488 1491 1498 1495 1491 1492 1494 1495 1498 1501 1504 1504 1502 1501 1510 1513 1504 1500 1504 1505 1507 1510 1512 1517 1516 1512 1509 1506 1512 1520 1519 1511 1504 1503 1506 1507 1506 1505 1504 1504 1507 1509 1512 1514 1516 1518
1486 1484 1482 1481 1480 1480 1479 1479 1480 1480 1481 1482 1481 1482 1482 1481 1483 1481 1486 1497 1491 1476 1475 1475 1472 1473 1473 1474 1475 1475 1478 1477 1477 1481 1479 1479 1481 1479 1483 1485 1485 1487 1486 1491 1500 1495 1489 1492 1493 1494 1498 1501 1501 1499 1497 1499 1505 1506 1500 1500 1502 1503 1506 1508 1511 1515 1514 1514 1518 1511 1510 1523 1523 1510 1505 1505 1508 1510 1506 1502 1500 1500 1503 1506 1508 1511 1512 1515
1486 1484 1483 1482 1481 1480 1480 1480 1480 1480 1481 1481 1481 1482 1481 1481 1482 1481 1489 1497 1486 1475 1476 1475 1473 1474 1473 1474 1475 1475 1476 1476 1478 1481 1479 1480 1481 1480 1483 1485 1484 1487 1486 1489 1495 1492 1489 1490 1490 1492 1497 1498 1494 1492 1493 1496 1500 1498 1497 1499 1500 1502 1505 1507 1512 1512 1513 1520 1521 1512 1511 1523 1525 1513 1511 1512 1511 1509 1501 1497 1497 1497 1499 1501 1504 1507 1509 1512
1486 1485 1484 1483 1482 1481 1481 1480 1480 1481 1481 1480 1481 1481 1480 1481 1482 1486 1497 1496 1483 1477 1476 1474 1474 1475 1474 1476 1477 1476 1477 1477 1478 1480 1481 1482 1482 1481 1483 1484 1484 1487 1488 1489 1491 1490 1489 1488 1489 1491 1494 1492 1489 1489 1490 1491 1493 1494 1497 1500 1502 1506 1505 1508 1512 1509 1518 1525 1516 1508 1509 1517 1523 1518 1513 1513 1507 1501 1497 1495 1494 1494 1496 1497 1499 1502 1505 1508
1487 1486 1485 1484 1483 1482 1481 1481 1481 1480 1480 1480 1480 1479 1480 1481 1483 1493 1500 1490 1482 1480 1476 1475 1476 1475 1476 1478 1479 1479 1479 1480 1480 1481 1484 1486 1486 1486 1487 1489 1489 1490 1492 1492 1492 1491 1489 1489 1491 1491 1491 1490 1489 1489 1489 1489 1490 1493 1498 1501 1506 1512 1511 1514 1515 1514 1527 1529 1512 1509 1510 1513 1523 1522 1515 1511 1503 1498 1498 1495 1492 1490 1491 1493 1495 1498 1501 1504
1488 1487 1486 1485 1484 1483 1482 1481 1480 1480 1480 1480 1479 1479 1480 1484 1490 1498 1496 1486 1484 1484 1479 1478 1478 1476 1477 1478 1482 1484 1482 1485 1486 1486 1490 1493 1494 1496 1499 1501 1501 1499 1500 1500 1497 1495 1492 1492 1493 1491 1490 1490 1490 1490 1490 1491 1492 1496 1500 1503 1513 1522 1523 1526 1528 1526 1531 1524 1511 1513 1512 1513 1520 1517 1513 1510 1503 1500 1497 1493 1491 1489 1489 1490 1491 1494 1497 1500
1489 1487 1486 1485 1484 1483 1482 1482 1481 1481 1480 1479 1479 1478 1480 1490 1499 1499 1493 1488 1488 1484 1479 1480 1479 1478 1478 1480 1486 1487 1486 1491 1492 1491 1494 1496 1499 1503 1504 1504 1504 1502 1502 1504 1502 1499 1498 1496 1493 1493 1492 1491 1492 1492 1493 1495 1496 1498 1501 1504 1514 1525 1531 1536 1538 1536 1532 1520 1511 1513 1511 1513 1517 1514 1510 1508 1503 1500 1496 1491 1489 1488 1489 1490 1490 1492 1494 1497
1489 1488 1487 1486 1484 1484 1483 1482 1481 1480 1479 1478 1479 1479 1484 1497 1501 1496 1492 1491 1487 1482 1481 1482 1480 1479 1481 1484 1487 1487 1490 1497 1496 1495 1497 1498 1504 1509 1507 1504 1503 1504 1503 1504 1506 1506 1507 1505 1500 1498 1498 1495 1495 1496 1496 1498 1498 1498 1496 1497 1505 1512 1519 1528 1530 1528 1526 1519 1514 1513 1510 1511 1516 1515 1509 1505 1502 1499 1495 1492 1488 1486 1488 1489 1491 1493 1495 1496
1490 1489 1488 1486 1485 1485 1483 1483 1481 1480 1479 1478 1478 1484 1494 1504 1503 1497 1495 1491 1486 1485 1483 1482 1481 1482 1486 1488 1488 1487 1490 1497 1498 1499 1502 1506 1512 1515 1514 1510 1507 1506 1506 1507 1510 1510 1511 1511 1504 1500 1499 1497 1497 1496 1495 1496 1497 1497 1495 1496 1501 1502 1504 1513 1518 1515 1515 1518 1518 1514 1510 1509 1510 1508 1504 1502 1501 1497 1494 1492 1489 1489 1488 1487 1490 1492 1493 1495
1491 1490 1488 1487 1486 1485 1483 1483 1481 1480 1480 1476 1481 1494 1502 1504 1503 1499 1496 1490 1488 1487 1485 1485 1486 1489 1492 1493 1493 1491 1489 1494 1499 1503 1508 1512 1515 1517 1517 1514 1510 1509 1509 1510 1512 1512 1513 1512 1506 1501 1498 1496 1497 1496 1494 1496 1498 1497 1496 1499 1501 1500 1499 1507 1517 1516 1512 1517 1521 1518 1516 1515 1510 1505 1502 1502 1501 1497 1496 1494 1493 1493 1491 1489 1490 1490 1491 1492
1491 1490 1488 1487 1486 1485 1484 1483 1481 1481 1479 1477 1487 1500 1502 1500 1499 1498 1494 1489 1488 1487 1486 1491 1495 1497 1498 1499 1502 1499 1493 1496 1501 1506 1513 1516 1517 1518 1518 1515 1512 1511 1511 1512 1513 1514 1514 1513 1508 1504 1501 1496 1494 1494 1493 1494 1496 1496 1498 1500 1499 1500 1501 1503 1514 1522 1519 1520 1525 1526 1529 1529 1524 1518 1510 1505 1504 1502 1501 1499 1496 1495 1492 1491 1491 1490 1490 1490
1491 1490 1489 1487 1487 1486 1484 1483 1482 1481 1478 1481 1493 1500 1500 1499 1498 1495 1493 1490 1489 1488 1489 1496 1499 1500 1501 1503 1508 1506 1499 1501 1506 1510 1516 1519 1520 1521 1520 1517 1514 1511 1511 1510 1511 1514 1514 1514 1511 1506 1506 1502 1494 1493 1497 1497 1495 1496 1498 1500 1499 1503 1505 1503 1511 1522 1522 1527 1532 1532 1534 1534 1531 1528 1520 1514 1512 1509 1506 1503 1500 1497 1495 1494 1492 1489 1488 1488
1492 1491 1490 1489 1488 1487 1486 1485 1484 1481 1480 1490 1501 1501 1499 1499 1497 1494 1493 1491 1490 1490 1494 1498 1499 1501 1503 1505 1509 1509 1505 1507 1512 1515 1519 1523 1523 1521 1520 1520 1516 1513 1512 1509 1512 1515 1514 1516 1515 1507 1504 1504 1500 1504 1514 1512 1502 1498 1500 1503 1503 1505 1506 1506 1510 1513 1515 1526 1535 1536 1538 1537 1530 1527 1524 1521 1518 1513 1511 1508 1504 1502 1500 1497 1494 1489 1486 1484
1492 1491 1492 1492 1490 1489 1488 1487 1485 1483 1488 1498 1503 1501 1500 1500 1498 1496 1494 1492 1491 1492 1496 1499 1499 1502 1506 1507 1508 1510 1511 1513 1515 1518 1522 1525 1525 1521 1519 1520 1518 1515 1514 1511 1513 1515 1514 1517 1519 1513 1506 1509 1515 1520 1525 1523 1514 1511 1513 1516 1517 1513 1511 1510 1514 1517 1515 1520 1527 1533 1544 1543 1528 1523 1524 1522 1519 1515 1514 1511 1507 1506 1503 1498 1495 1490 1484 1481
1493 1493 1494 1493 1492 1491 1489 1488 1489 1492 1497 1502 1502 1502 1501 1501 1500 1498 1495 1494 1495 1496 1498 1500 1502 1505 1507 1509 1510 1511 1514 1518 1519 1521 1524 1527 1527 1525 1521 1520 1519 1517 1515 1515 1515 1516 1517 1518 1521 1521 1518 1522 1527 1526 1523 1522 1521 1521 1523 1527 1527 1523 1519 1515 1517 1523 1522 1521 1524 1531 1545 1544 1528 1522 1523 1520 1519 1517 1515 1513 1510 1508 1505 1501 1496 1490 1485 1481
1494 1497 1498 1495 1494 1493 1490 1493 1497 1499 1502 1505 1506 1505 1503 1503 1503 1501 1499 1498 1498 1499 1500 1501 1504 1508 1509 1511 1512 1512 1515 1521 1523 1524 1526 1528 1528 1527 1524 1520 1519 1517 1516 1519 1520 1518 1519 1521 1522 1526 1529 1528 1527 1525 1523 1523 1522 1522 1524 1528 1527 1526 1527 1524 1522 1525 1527 1530 1529 1528 1539 1541 1527 1522 1523 1520 1520 1518 1515 1514 1512 1509 1507 1503 1498 1492 1487 1483
1497 1500 1500 1497 1496 1494 1494 1500 1504 1503 1505 1507 1507 1506 1505 1506 1506 1504 1502 1501 1501 1502 1504 1505 1507 1509 1511 1512 1513 1514 1517 1522 1526 1526 1526 1528 1527 1526 1524 1521 1519 1518 1517 1521 1522 1518 1520 1525 1526 1527 1529 1527 1523 1524 1525 1523 1523 1525 1527 1529 1529 1528 1529 1528 1526 1528 1532 1537 1534 1530 1537 1538 1525 1521 1523 1521 1520 1518 1515 1513 1511 1510 1509 1505 1501 1495 1490 1487
1500 1501 1500 1499 1498 1495 1497 1505 1507 1507 1509 1508 1508 1508 1508 1508 1508 1508 1507 1506 1507 1507 1508 1511 1511 1511 1513 1513 1514 1516 1518 1522 1527 1528 1527 1528 1528 1526 1525 1522 1520 1520 1520 1522 1522 1518 1523 1531 1529 1528 1533 1534 1529 1527 1527 1527 1529 1534 1534 1533 1532 1530 1528 1527 1527 1528 1533 1540 1540 1535 1537 1534 1525 1523 1523 1521 1521 1519 1516 1514 1512 1510 1509 1506 1502 1498 1494 1492
1502 1502 1502 1501 1499 1497 1501 1507 1508 1509 1511 1511 1511 1512 1511 1510 1511 1511 1511 1510 1511 1510 1512 1514 1514 1514 1515 1514 1516 1519 1518 1520 1525 1528 1528 1528 1528 1527 1525 1524 1523 1522 1521 1522 1521 1518 1526 1535 1533 1528 1533 1538 1537 1536 1536 1536 1538 1539 1538 1536 1534 1532 1530 1528 1529 1532 1536 1541 1539 1535 1535 1532 1526 1526 1525 1523 1522 1521 1518 1517 1514 1512 1511 1509 1506 1502 1499 1496
1503 1505 1506 1505 1503 1502 1505 1508 1508 1509 1512 1512 1514 1516 1515 1515 1514 1513 1512 1512 1513 1513 1514 1516 1515 1516 1517 1517 1520 1523 1522 1522 1524 1527 1529 1529 1529 1528 1527 1526 1524 1523 1523 1522 1520 1521 1529 1538 1538 1534 1534 1537 1540 1541 1540 1541 1542 1541 1541 1539 1536 1535 1533 1530 1532 1537 1539 1539 1536 1533 1535 1534 1529 1529 1529 1526 1525 1524 1522 1520 1517 1516 1514 1512 1510 1507 1504 1502
1505 1509 1511 1510 1509 1509 1509 1510 1510 1511 1512 1514 1517 1519 1519 1518 1517 1515 1514 1515 1515 1515 1516 1518 1517 1517 1519 1520 1523 1527 1528 1527 1527 1529 1531 1531 1530 1529 1528 1527 1526 1525 1524 1523 1521 1523 1531 1538 1540 1539 1539 1540 1541 1541 1540 1540 1541 1541 1542 1541 1538 1537 1535 1533 1533 1535 1536 1538 1536 1533 1536 1538 1533 1532 1533 1530 1528 1527 1525 1523 1522 1521 1518 1516 1513 1510 1507 1505
1508 1512 1514 1513 1514 1516 1515 1514 1514 1513 1514 1515 1518 1521 1521 1520 1520 1519 1518 1517 1517 1517 1518 1521 1521 1521 1521 1522 1524 1529 1531 1531 1532 1533 1533 1533 1532 1531 1529 1528 1528 1527 1526 1525 1524 1525 1532 1540 1541 1539 1542 1542 1541 1541 1541 1540 1541 1541 1541 1541 1539 1537 1536 1536 1535 1534 1535 1537 1536 1533 1535 1537 1535 1535 1534 1532 1530 1529 1528 1527 1526 1523 1521 1519 1516 1513 1510 1509
1510 1513 1514 1514 1516 1518 1518 1518 1516 1515 1516 1517 1520 1522 1523 1522 1522 1522 1521 1520 1520 1519 1520 1523 1525 1524 1523 1523 1524 1528 1531 1532 1535 1535 1533 1534 1534 1533 1533 1532 1530 1529 1527 1527 1528 1528 1534 1540 1541 1540 1543 1544 1543 1543 1543 1542 1543 1542 1540 1539 1538 1537 1536 1536 1535 1533 1534 1534 1534 1534 1535 1535 1535 1535 1534 1532 1531 1530 1529 1529 1526 1524 1523 1521 1519 1517 1514 1513
1512 1514 1515 1515 1516 1518 1519 1519 1518 1517 1518 1519 1522 1524 1524 1524 1524 1523 1522 1522 1523 1523 1522 1524 1526 1525 1525 1524 1524 1527 1529 1529 1532 1533 1532 1534 1534 1534 1535 1535 1533 1531 1530 1530 1531 1530 1534 1540 1541 1541 1544 1546 1545 1543 1543 1543 1543 1542 1540 1538 1538 1537 1536 1535 1534 1533 1533 1535 1535 1535 1534 1534 1534 1533 1533 1533 1531 1530 1529 1528 1527 1526 1525 1523 1521 1520 1518 1515
1514 1515 1515 1515 1518 1520 1520 1520 1520 1520 1521 1523 1524 1525 1525 1525 1525 1525 1524 1524 1524 1524 1524 1525 1526 1526 1526 1527 1526 1528 1528 1528 1529 1530 1530 1531 1532 1532 1533 1534 1534 1533 1532 1533 1533 1532 1534 1539 1542 1541 1543 1546 1546 1545 1544 1543 1542 1543 1542 1539 1539 1538 1536 1536 1534 1533 1534 1536 1537 1536 1534 1535 1534 1533 1532 1533 1531 1530 1529 1529 1528 1528 1526 1525 1523 1521 1519 1517
1516 1516 1516 1516 1519 1522 1522 1522 1522 1523 1524 1525 1525 1525 1526 1526 1525 1525 1526 1526 1525 1524 1525 1525 1526 1526 1527 1528 1528 1528 1528 1528 1528 1529 1529 1529 1530 1531 1532 1532 1533 1533 1534 1535 1536 1536 1536 1538 1541 1542 1541 1544 1546 1546 1544 1541 1541 1543 1543 1541 1540 1539 1537 1536 1533 1532 1534 1536 1538 1538 1536 1536 1535 1533 1533 1532 1531 1531 1530 1530 1529 1528 1527 1526 1524 1522 1520 1518